Regional Weather Roundup
Issued by NWS Mt. Holly, NJ

Home | Current Version | Previous Version | Text Only | Print | Product List | Glossary On
Versions: 1 2 3 4 5 6 7 8 9 10 11 12 13 14 15 16 17 18 19 20 21 22 23 24 25 26 27 28
000
ASUS41 KPHI 051412
RWRPHI

REGIONAL WEATHER ROUNDUP
NATIONAL WEATHER SERVICE MOUNT HOLLY NJ
1000 AM EDT THU MAY 05 2016

NOTE:  "FAIR" INDICATES FEW OR NO CLOUDS BELOW 12,000 FEET WITH NO
SIGNIFICANT WEATHER AND/OR OBSTRUCTIONS TO VISIBILITY.

 * = STATION DOES NOT REPORT PRECIPITATION (E.G. RAIN, SNOW, ETC.)
        OR FOG.

NJZ015>026-051500-
SOUTHERN NEW JERSEY

CITY           SKY/WX    TMP DP  RH WIND       PRES   REMARKS
POMONA         CLOUDY    48  45  89 N15       29.67F
WILDWOOD*      CLOUDY   N/A N/A N/A NE12G23   29.67R
MILLVILLE      CLOUDY    50  44  80 NE12      29.67F
WRIGHTSTOWN    CLOUDY    48  46  93 N10       29.67F
MOUNT HOLLY    CLOUDY    50  44  80 NE9       29.69F
TRENTON        CLOUDY    49  44  83 NE9       29.70R

$$
NJZ001>014-051500-
NORTHERN NEW JERSEY

CITY           SKY/WX    TMP DP  RH WIND       PRES   REMARKS
SUSSEX         CLOUDY    49  43  80 NE8       29.74R
ANDOVER*         N/A     48  43  82 NE8       29.73R
MORRISTOWN     CLOUDY    52  45  76 N14G20    29.72R
NEWARK         CLOUDY    50  44  80 N13       29.71R
TETERBORO      CLOUDY    51  41  68 N12G17    29.70S
CALDWELL       CLOUDY    51  31  46 E13       29.72R
SOMERVILLE     CLOUDY    52  43  71 N8        29.70R
ALLAIRE*       CLOUDY    47  44  90 N13G18    29.70F
TOMS RIVER*    CLOUDY    46  43  87 NE9       29.70R

$$
PAZ043-044-047-054-055-060>062-066>071-051500-
EASTERN PENNSYLVANIA

CITY           SKY/WX    TMP DP  RH WIND       PRES   REMARKS
PHILADELPHIA   CLOUDY    51  43  74 NE16      29.69F
NORTH PHILA    CLOUDY    52  46  80 NE12      29.71F
BLUE BELL*     CLOUDY    48  43  81 CALM      29.69F
DOYLESTOWN     CLOUDY    49  43  80 NE8       29.69S
QUAKERTOWN*    CLOUDY    48  45  87 NE7       29.71S
PERKASIE*      CLOUDY    48  45  87 NE10      29.71S
POTTSTOWN      CLOUDY    50  44  80 NE8       29.71S
LANCASTER      CLOUDY    51  45  79 NE10      29.70R
COATESVILLE    CLOUDY    48  48 100 NE7       29.70S
READING        CLOUDY    51  43  74 NE12      29.70S
ALLENTOWN      CLOUDY    52  44  74 NE13      29.71S
MOUNT POCONO   CLOUDY    43  41  93 NE12      29.70R
HAZLETON       CLOUDY    46  41  81 NE7       29.73R
LEHIGHTON      CLOUDY    52  43  71 E7        29.72S
WILKES BARRE   CLOUDY    51  42  71 NE9       29.72R

$$
DEZALL-MDZ008-012-015-019-020-051500-
DELAWARE AND EASTERN MARYLAND

CITY           SKY/WX    TMP DP  RH WIND       PRES   REMARKS
WILMINGTON     CLOUDY    50  44  80 NE13      29.70R
DOVER          CLOUDY    50  50 100 NE9       29.67R
GEORGETOWN     CLOUDY    49  46  90 NE16G22   29.67S
EASTON         CLOUDY   N/A N/A N/A NE8       29.71S
ABERDEEN       CLOUDY    52  46  82 NE9       29.71
PATUXENT       CLOUDY    51  46  83 NE12      29.65F
OCEAN CITY     CLOUDY    49  46  90 NE15G24   29.65S
WALLOPS ISLAND CLOUDY    51  47  86 N15G24    29.63F
CAMBRIDGE      CLOUDY    50  45  81 E6        29.66S
SALISBURY      CLOUDY    50  47  89 NE15      29.65F

$$
PAZ001-021-NYZ056-072-MDZ011-DCZ001-051500-
OTHER NEARBY LOCATIONS

CITY           SKY/WX    TMP DP  RH WIND       PRES   REMARKS
HARRISBURG     CLOUDY    53  45  74 VRB3      29.70S
STATE COLLEGE  CLOUDY    50  46  87 NE9       29.71R
WILLIAMSPORT   CLOUDY    55  44  66 NE6       29.71S
BINGHAMTON     CLOUDY    47  41  80 NE8       29.74S
NEW YORK CITY  CLOUDY    50  42  74 VRB6      29.73S
BALTIMORE      DRIZZLE   50  48  93 NE9       29.69R FOG
WASHINGTON DC  CLOUDY    52  49  89 NE10      29.68S FOG

$$




USA.gov is the U.S. government's official web portal to all federal, state and local government web resources and services.